sat.trackr.live / text

‹ back to catalog

GYEONGGISAT-1

NORAD 66771 · 2025-276DK

PAYLOAD ACTIVE UNKNOWN

§ Identity

Operator
Country
SKOR
Launch date
2025-11-28
Launch site
AFWTR
Launch vehicle
Mass (kg)
RCS (m²)

External: N2YO · Heavens-Above · Gunter

§ Orbital elements

Epoch: 2026-05-25T02:43:31.977120Z

Period
94.71 min
Inclination
97.4238°
Eccentricity
0.0001135
Mean motion
15.20439303 rev/d
Perigee alt
503.7 km
Apogee alt
505.3 km
Semi-major
6,882.7 km
B*
2.3465e-4
RAAN
219.3792°
Arg perigee
33.9141°
Mean anomaly
326.2167°
Rev number
2,693

§ Raw data

GYEONGGISAT-11 66771U 25276DK  26145.11356455  .00005051  00000+0  23465-3 0  99902 66771  97.4238 219.3792 0001135  33.9141 326.2167 15.20439303 26933

JSON: /api/v1/satellites/66771 · /tle

For live sub-satellite position, see the globe view (requires WebGL).

§ Visibility from observer

Set your observer location to see the next 7 days of passes ≥ 10°. The values pass through the URL so the page stays shareable.

No JS? Fill the form by hand. The geolocation button needs JavaScript.